EN

Hourly Weather Abay

Today, 14 May, Friday

Time Temperature Precipitation Wind Pressure Humidity
00:00 +14°C° 0 mm 2 mps 694 mmHg 52%
01:00 +14°C° 0 mm 2 mps 693 mmHg 54%
02:00 +14°C° 0 mm 2 mps 693 mmHg 55%
03:00 +14°C° 0 mm 2 mps 693 mmHg 56%
04:00 +13°C° 0 mm 2 mps 693 mmHg 57%
05:00 +13°C° 0 mm 2 mps 693 mmHg 58%
06:00 +14°C° 0.1 mm 2 mps 693 mmHg 56%
07:00 +15°C° 0.1 mm 2 mps 693 mmHg 54%
08:00 +16°C° 0.1 mm 3 mps 693 mmHg 52%
09:00 +16°C° 0.3 mm 3 mps 693 mmHg 54%
10:00 +16°C° 0.3 mm 3 mps 693 mmHg 56%
11:00 +16°C° 0 mm 3 mps 693 mmHg 61%
12:00 +14°C° 1.2 mm 3 mps 693 mmHg 68%
13:00 +13°C° 1.2 mm 3 mps 693 mmHg 76%
14:00 +12°C° 1.2 mm 4 mps 693 mmHg 83%
15:00 +13°C° 1 mm 3 mps 694 mmHg 79%
16:00 +13°C° 1 mm 3 mps 694 mmHg 74%
17:00 +13°C° 1 mm 3 mps 695 mmHg 69%
18:00 +12°C° 0.3 mm 3 mps 695 mmHg 73%
19:00 +11°C° 0.3 mm 3 mps 695 mmHg 77%
20:00 +10°C° 0.3 mm 3 mps 696 mmHg 80%
21:00 +10°C° 0.1 mm 2 mps 696 mmHg 79%
22:00 +9°C° 0.1 mm 2 mps 696 mmHg 78%
23:00 +9°C° 0.1 mm 2 mps 696 mmHg 76%

Tomorrow, 15 May, Saturday

Time Temperature Precipitation Wind Pressure Humidity
00:00 +8°C° 0 mm 2 mps 695 mmHg 75%
01:00 +8°C° 0 mm 2 mps 695 mmHg 74%
02:00 +8°C° 0 mm 2 mps 695 mmHg 73%
03:00 +7°C° 0 mm 2 mps 695 mmHg 71%
04:00 +7°C° 0 mm 2 mps 695 mmHg 70%
05:00 +7°C° 0 mm 3 mps 695 mmHg 68%
06:00 +9°C° 0 mm 2 mps 695 mmHg 64%
07:00 +12°C° 0 mm 2 mps 695 mmHg 60%
08:00 +14°C° 0 mm 1 mps 695 mmHg 56%
09:00 +14°C° 0 mm 2 mps 695 mmHg 55%
10:00 +15°C° 0 mm 2 mps 695 mmHg 54%
11:00 +16°C° 0 mm 2 mps 695 mmHg 53%
12:00 +16°C° 0.3 mm 2 mps 695 mmHg 51%
13:00 +17°C° 0.3 mm 2 mps 695 mmHg 50%
14:00 +17°C° 0.3 mm 2 mps 695 mmHg 49%
15:00 +16°C° 0.3 mm 2 mps 695 mmHg 53%
16:00 +15°C° 0.3 mm 2 mps 695 mmHg 58%
17:00 +15°C° 0.3 mm 2 mps 694 mmHg 62%
18:00 +13°C° 0.2 mm 2 mps 695 mmHg 65%
19:00 +12°C° 0.2 mm 2 mps 695 mmHg 69%
20:00 +10°C° 0.2 mm 2 mps 696 mmHg 72%
21:00 +10°C° 0 mm 3 mps 696 mmHg 69%
22:00 +9°C° 0 mm 3 mps 695 mmHg 65%
23:00 +9°C° 0 mm 3 mps 695 mmHg 62%

Day after tomorrow, 16 May, Sunday

Time Temperature Precipitation Wind Pressure Humidity
00:00 +8°C° 0 mm 3 mps 695 mmHg 61%
01:00 +8°C° 0 mm 3 mps 695 mmHg 59%
02:00 +8°C° 0 mm 3 mps 694 mmHg 57%
03:00 +8°C° 0 mm 3 mps 694 mmHg 56%
04:00 +8°C° 0 mm 3 mps 694 mmHg 55%
05:00 +8°C° 0 mm 3 mps 694 mmHg 54%
06:00 +10°C° 0 mm 2 mps 695 mmHg 51%
07:00 +13°C° 0 mm 2 mps 695 mmHg 48%
08:00 +15°C° 0 mm 2 mps 695 mmHg 44%
09:00 +16°C° 0 mm 2 mps 695 mmHg 44%
10:00 +17°C° 0 mm 2 mps 695 mmHg 44%
11:00 +18°C° 0 mm 3 mps 695 mmHg 44%
12:00 +18°C° 0 mm 3 mps 695 mmHg 44%
13:00 +19°C° 0 mm 3 mps 695 mmHg 45%
14:00 +19°C° 0 mm 3 mps 695 mmHg 46%
15:00 +19°C° 0 mm 3 mps 695 mmHg 47%
16:00 +19°C° 0 mm 2 mps 695 mmHg 48%
17:00 +19°C° 0 mm 2 mps 695 mmHg 49%
18:00 +17°C° 0 mm 2 mps 695 mmHg 51%
19:00 +15°C° 0 mm 2 mps 695 mmHg 53%
20:00 +13°C° 0 mm 3 mps 695 mmHg 55%
21:00 +12°C° 0 mm 3 mps 695 mmHg 51%
22:00 +12°C° 0 mm 3 mps 694 mmHg 48%
23:00 +12°C° 0 mm 3 mps 694 mmHg 44%

17 May, Monday

Time Temperature Precipitation Wind Pressure Humidity
00:00 +12°C° 0 mm 3 mps 694 mmHg 43%
01:00 +11°C° 0 mm 3 mps 693 mmHg 42%
02:00 +12°C° 0 mm 2 mps 693 mmHg 41%
03:00 +12°C° 0 mm 2 mps 693 mmHg 41%
04:00 +12°C° 0 mm 2 mps 693 mmHg 41%
05:00 +12°C° 0 mm 2 mps 693 mmHg 40%
06:00 +14°C° 0 mm 2 mps 694 mmHg 39%
07:00 +16°C° 0 mm 1 mps 694 mmHg 37%
08:00 +19°C° 0 mm 1 mps 694 mmHg 36%
09:00 +19°C° 0 mm 2 mps 694 mmHg 37%
10:00 +20°C° 0 mm 2 mps 694 mmHg 39%
11:00 +21°C° 0 mm 3 mps 695 mmHg 41%
12:00 +22°C° 0 mm 3 mps 694 mmHg 42%
13:00 +23°C° 0 mm 2 mps 694 mmHg 42%
14:00 +23°C° 0 mm 2 mps 694 mmHg 43%
15:00 +23°C° 0 mm 2 mps 694 mmHg 44%
16:00 +23°C° 0 mm 2 mps 694 mmHg 46%
17:00 +23°C° 0 mm 2 mps 694 mmHg 48%
18:00 +20°C° 0 mm 2 mps 694 mmHg 51%
19:00 +18°C° 0 mm 2 mps 694 mmHg 55%
20:00 +16°C° 0 mm 2 mps 694 mmHg 58%
21:00 +16°C° 0 mm 2 mps 693 mmHg 56%
22:00 +16°C° 0 mm 2 mps 693 mmHg 54%
23:00 +16°C° 0 mm 3 mps 693 mmHg 51%

18 May, Tuesday

Time Temperature Precipitation Wind Pressure Humidity
00:00 +14°C° 0 mm 3 mps 692 mmHg 50%
01:00 +14°C° 0 mm 3 mps 692 mmHg 49%
02:00 +14°C° 0 mm 3 mps 692 mmHg 48%
03:00 +14°C° 0 mm 3 mps 692 mmHg 47%
04:00 +15°C° 0 mm 2 mps 692 mmHg 46%
05:00 +15°C° 0 mm 2 mps 692 mmHg 44%
06:00 +17°C° 0 mm 2 mps 692 mmHg 43%
07:00 +20°C° 0 mm 1 mps 692 mmHg 41%
08:00 +22°C° 0 mm 1 mps 692 mmHg 39%
09:00 +23°C° 0 mm 1 mps 692 mmHg 39%
10:00 +24°C° 0 mm 2 mps 692 mmHg 40%
11:00 +25°C° 0 mm 2 mps 692 mmHg 40%
12:00 +25°C° 0.1 mm 2 mps 692 mmHg 40%
13:00 +25°C° 0.1 mm 2 mps 692 mmHg 40%
14:00 +26°C° 0.1 mm 2 mps 692 mmHg 40%
15:00 +26°C° 0.1 mm 2 mps 692 mmHg 41%
16:00 +25°C° 0.1 mm 2 mps 692 mmHg 42%
17:00 +25°C° 0.1 mm 2 mps 691 mmHg 43%
18:00 +24°C° 0 mm 2 mps 691 mmHg 46%
19:00 +21°C° 0 mm 2 mps 691 mmHg 50%
20:00 +19°C° 0 mm 2 mps 691 mmHg 53%
21:00 +19°C° 0 mm 2 mps 691 mmHg 51%
22:00 +18°C° 0 mm 3 mps 691 mmHg 49%
23:00 +18°C° 0 mm 3 mps 690 mmHg 46%

19 May, Wednesday

Time Temperature Precipitation Wind Pressure Humidity
00:00 +18°C° 0 mm 3 mps 690 mmHg 47%
01:00 +17°C° 0 mm 2 mps 690 mmHg 48%
02:00 +17°C° 0 mm 2 mps 690 mmHg 49%
03:00 +17°C° 0 mm 2 mps 690 mmHg 49%
04:00 +17°C° 0 mm 2 mps 690 mmHg 50%
05:00 +17°C° 0 mm 2 mps 690 mmHg 51%
06:00 +20°C° 0 mm 1 mps 690 mmHg 48%
07:00 +22°C° 0 mm 1 mps 691 mmHg 45%
08:00 +24°C° 0 mm 1 mps 691 mmHg 43%
09:00 +25°C° 0.1 mm 1 mps 691 mmHg 40%
10:00 +25°C° 0.1 mm 2 mps 691 mmHg 37%
11:00 +26°C° 0.1 mm 2 mps 691 mmHg 35%
12:00 +27°C° 0.2 mm 2 mps 691 mmHg 35%
13:00 +27°C° 0.2 mm 2 mps 691 mmHg 35%
14:00 +27°C° 0.2 mm 2 mps 691 mmHg 34%
15:00 +27°C° 0.1 mm 2 mps 691 mmHg 37%
16:00 +26°C° 0.1 mm 2 mps 691 mmHg 39%
17:00 +26°C° 0.1 mm 2 mps 691 mmHg 41%
18:00 +24°C° 0.1 mm 2 mps 691 mmHg 45%
19:00 +21°C° 0.1 mm 2 mps 691 mmHg 48%
20:00 +19°C° 0.1 mm 2 mps 691 mmHg 52%
21:00 +19°C° 0.2 mm 3 mps 691 mmHg 55%
22:00 +19°C° 0.2 mm 3 mps 691 mmHg 57%
23:00 +19°C° 0.2 mm 4 mps 691 mmHg 60%
Show more